Greeley, CO

4:55 AM MDT on June 24, 2017 (GMT -0600)
Greeley-Weld County

Weather History for KGXY - January, 2014

Change the Weather History Date:

Thursday, January 16, 2014

  Actual Average Record
Temperature  
Mean Temperature 37 °F -  
Max Temperature 48 °F - 57 °F (1974)
Min Temperature 26 °F - -14 °F (2007)
Degree Days  
Heating Degree Days 28    
Month to date heating degree days  
Cooling Degree Days 0    
Month to date cooling degree days  
Moisture  
Dew Point 16 °F    
Average Humidity 46    
Maximum Humidity 64    
Minimum Humidity 25    
Precipitation  
Precipitation 0.00 in - 0.27 in (1981)
Sea Level Pressure  
Sea Level Pressure 30.17 in    
Wind  
Wind Speed 12 mph (NNW)    
Max Wind Speed 39 mph    
Max Gust Speed 46 mph    
Visibility 10 miles    
Events      
T = Trace of Precipitation, MM = Missing Value Source: NWS Daily Summary

Daily Weather History Graph

Daily Weather History Graph

Search for Another Location

Airport or City:

Trip Planner

Search our weather history database for the weather conditions in past years. The results will help you decide how hot, cold, wet, or windy it might be!

Date:

Astronomy

Jan. 16, 2014 Rise Set
Actual Time 7:19 AM MST 4:57 PM MST
Civil Twilight 6:49 AM MST 5:27 PM MST
Nautical Twilight 6:15 AM MST 6:01 PM MST
Astronomical Twilight 5:43 AM MST 6:33 PM MST
Moon 5:52 PM MST (1/16) 7:13 AM MST (1/16)
Length of Visible Light 10h 38m
Length of Day
9h 38m
Full, 100% of the Moon is Illuminated
Jan 16
Full
Jan 23
Last Quarter
Jan 30
New
Feb 6
First Quarter
Feb 14
Full

Hourly Weather History & Observations

Time (MST) Temp. Windchill Dew Point Humidity Pressure Visibility Wind Dir Wind Speed Gust Speed Precip Events Conditions
12:15 AM 33.8 °F 30.8 °F 15.8 °F 48% 30.07 in 10.0 mi West 3.5 mph - N/A   Clear
12:35 AM 28.4 °F - 14.0 °F 55% 30.07 in 10.0 mi Calm Calm - N/A   Clear
12:55 AM 30.2 °F 25.4 °F 15.8 °F 55% 30.06 in 10.0 mi West 4.6 mph - N/A   Clear
1:15 AM 33.8 °F - 14.0 °F 44% 30.08 in 10.0 mi Calm Calm - N/A   Clear
1:35 AM 30.2 °F - 12.2 °F 47% 30.07 in 10.0 mi Calm Calm - N/A   Clear
1:55 AM 33.8 °F 30.8 °F 14.0 °F 44% 30.08 in 10.0 mi WNW 3.5 mph - N/A   Clear
2:15 AM 35.6 °F 30.7 °F 12.2 °F 38% 30.09 in 10.0 mi North 5.8 mph - N/A   Clear
2:35 AM 30.2 °F 24.3 °F 12.2 °F 47% 30.08 in 10.0 mi North 5.8 mph - N/A   Clear
2:55 AM 32.0 °F - 12.2 °F 44% 30.09 in 10.0 mi Calm Calm - N/A   Clear
3:15 AM 30.2 °F 21.3 °F 12.2 °F 47% 30.10 in 10.0 mi NNW 10.4 mph - N/A   Clear
3:35 AM 32.0 °F 23.6 °F 15.8 °F 51% 30.10 in 10.0 mi North 10.4 mph - N/A   Clear
3:55 AM 33.8 °F 24.8 °F 14.0 °F 44% 30.11 in 10.0 mi North 12.7 mph - N/A   Clear
4:15 AM 35.6 °F 24.8 °F 15.8 °F 44% 30.11 in 10.0 mi North 19.6 mph 23.0 mph N/A   Clear
4:35 AM 35.6 °F 24.0 °F 15.8 °F 44% 30.12 in 10.0 mi North 23.0 mph 28.8 mph N/A   Clear
4:55 AM 37.4 °F 27.2 °F 15.8 °F 41% 30.13 in 10.0 mi North 19.6 mph - N/A   Clear
5:15 AM 33.8 °F 22.5 °F 14.0 °F 44% 30.14 in 10.0 mi NNE 19.6 mph - N/A   Clear
5:35 AM 30.2 °F 18.1 °F 15.8 °F 55% 30.15 in 10.0 mi NNE 18.4 mph - N/A   Clear
5:55 AM 30.2 °F 18.1 °F 17.6 °F 60% 30.15 in 10.0 mi NNE 18.4 mph - N/A   Clear
6:15 AM 30.2 °F 18.1 °F 17.6 °F 60% 30.16 in 10.0 mi NNE 18.4 mph 26.5 mph N/A   Clear
6:35 AM 30.2 °F 17.8 °F 17.6 °F 60% 30.16 in 10.0 mi NNE 19.6 mph 24.2 mph N/A   Clear
6:55 AM 28.4 °F 15.8 °F 17.6 °F 64% 30.16 in 10.0 mi NNE 18.4 mph - N/A   Clear
7:15 AM 28.4 °F 15.4 °F 17.6 °F 64% 30.16 in 10.0 mi NNE 19.6 mph 24.2 mph N/A   Clear
7:35 AM 28.4 °F 15.8 °F 17.6 °F 64% 30.17 in 10.0 mi NNE 18.4 mph 21.9 mph N/A   Clear
7:55 AM 30.2 °F 18.1 °F 17.6 °F 60% 30.17 in 10.0 mi NNE 18.4 mph - N/A   Clear
8:15 AM 32.0 °F 22.1 °F 17.6 °F 55% 30.17 in 10.0 mi North 13.8 mph - N/A   Clear
8:35 AM 32.0 °F 24.8 °F 17.6 °F 55% 30.18 in 10.0 mi WSW 8.1 mph - N/A   Clear
8:55 AM 35.6 °F 29.9 °F 17.6 °F 48% 30.19 in 10.0 mi West 6.9 mph - N/A   Clear
9:15 AM 37.4 °F 33.8 °F 17.6 °F 45% 30.20 in 10.0 mi West 4.6 mph - N/A   Clear
9:35 AM 35.6 °F 30.7 °F 19.4 °F 52% 30.21 in 10.0 mi SSW 5.8 mph - N/A   Clear
9:55 AM 35.6 °F 29.2 °F 19.4 °F 52% 30.22 in 10.0 mi South 8.1 mph - N/A   Clear
10:15 AM 35.6 °F 29.2 °F 19.4 °F 52% 30.22 in 10.0 mi SSW 8.1 mph - N/A   Clear
10:35 AM 37.4 °F 31.4 °F 19.4 °F 48% 30.22 in 10.0 mi SSW 8.1 mph - N/A   Clear
10:55 AM 37.4 °F 32.1 °F 19.4 °F 48% 30.21 in 10.0 mi SSW 6.9 mph - N/A   Clear
11:15 AM 41.0 °F 37.1 °F 19.4 °F 42% 30.20 in 10.0 mi WSW 5.8 mph - N/A   Clear
11:35 AM 41.0 °F 37.1 °F 21.2 °F 45% 30.19 in 10.0 mi WSW 5.8 mph - N/A   Clear
11:55 AM 44.6 °F 36.9 °F 21.2 °F 39% 30.18 in 10.0 mi NNW 18.4 mph 24.2 mph N/A   Clear
12:15 PM 46.4 °F 39.5 °F 17.6 °F 32% 30.17 in 10.0 mi NW 17.3 mph 28.8 mph N/A   Clear
12:35 PM 48.2 °F - 15.8 °F 27% 30.15 in 10.0 mi NNW 33.4 mph 39.1 mph N/A   Clear
12:55 PM 48.2 °F - 14.0 °F 25% 30.14 in 10.0 mi NNW 32.2 mph 41.4 mph N/A   Clear
1:15 PM 48.2 °F - 14.0 °F 25% 30.14 in 10.0 mi NNW 33.4 mph 42.6 mph N/A   Clear
1:35 PM 46.4 °F 36.3 °F 12.2 °F 25% 30.14 in 9.0 mi North 36.8 mph 44.9 mph N/A   Clear
1:55 PM 46.4 °F 36.5 °F 12.2 °F 25% 30.15 in 9.0 mi North 34.5 mph 46.0 mph N/A   Clear
2:15 PM 46.4 °F 36.0 °F 12.2 °F 25% 30.15 in 9.0 mi North 39.1 mph 46.0 mph N/A   Clear
2:35 PM 44.6 °F 33.8 °F 12.2 °F 27% 30.16 in 10.0 mi North 36.8 mph 44.9 mph N/A   Clear
2:55 PM 44.6 °F 33.9 °F 12.2 °F 27% 30.16 in 10.0 mi North 35.7 mph 44.9 mph N/A   Clear
3:15 PM 44.6 °F 34.6 °F 14.0 °F 29% 30.17 in 10.0 mi North 31.1 mph 42.6 mph N/A   Clear
3:35 PM 44.6 °F 34.4 °F 12.2 °F 27% 30.17 in 10.0 mi North 32.2 mph 40.3 mph N/A   Clear
4:15 PM 41.0 °F 29.7 °F 14.0 °F 33% 30.19 in 10.0 mi North 31.1 mph 35.7 mph N/A   Mostly Cloudy
4:55 PM 39.2 °F 28.3 °F 14.0 °F 36% 30.21 in 10.0 mi North 25.3 mph 32.2 mph N/A   Partly Cloudy
5:15 PM 37.4 °F 25.9 °F 15.8 °F 41% 30.21 in 10.0 mi North 25.3 mph 28.8 mph N/A   Partly Cloudy
5:55 PM 37.4 °F 26.6 °F 15.8 °F 41% 30.23 in 10.0 mi North 21.9 mph 27.6 mph N/A   Clear
6:15 PM 35.6 °F 24.0 °F 15.8 °F 44% 30.23 in 10.0 mi North 23.0 mph 28.8 mph N/A   Clear
6:35 PM 35.6 °F 24.2 °F 15.8 °F 44% 30.23 in 10.0 mi North 21.9 mph 27.6 mph N/A   Clear
6:55 PM 35.6 °F 24.5 °F 15.8 °F 44% 30.24 in 10.0 mi North 20.7 mph 25.3 mph N/A   Clear
7:15 PM 35.6 °F 25.2 °F 15.8 °F 44% 30.24 in 10.0 mi North 18.4 mph - N/A   Clear
7:55 PM 33.8 °F 24.8 °F 15.8 °F 48% 30.25 in 10.0 mi North 12.7 mph - N/A   Clear
8:15 PM 32.0 °F 23.0 °F 14.0 °F 48% 30.25 in 10.0 mi NNW 11.5 mph - N/A   Clear
8:35 PM 30.2 °F 20.2 °F 15.8 °F 55% 30.25 in 10.0 mi North 12.7 mph - N/A   Clear
9:15 PM 30.2 °F 20.8 °F 14.0 °F 51% 30.24 in 10.0 mi NNE 11.5 mph - N/A   Clear
9:35 PM 28.4 °F 18.5 °F 14.0 °F 55% 30.25 in 10.0 mi NNE 11.5 mph - N/A   Clear
9:55 PM 28.4 °F 19.7 °F 14.0 °F 55% 30.25 in 10.0 mi NNE 9.2 mph - N/A   Mostly Cloudy
10:15 PM 26.6 °F 17.5 °F 14.0 °F 59% 30.24 in 10.0 mi NE 9.2 mph - N/A   Overcast
10:35 PM 26.6 °F 15.7 °F 15.8 °F 64% 30.24 in 10.0 mi NNE 12.7 mph - N/A   Mostly Cloudy
10:55 PM 28.4 °F 19.7 °F 15.8 °F 59% 30.25 in 10.0 mi WSW 9.2 mph - N/A   Mostly Cloudy
11:15 PM 32.0 °F 23.6 °F 17.6 °F 55% 30.25 in 10.0 mi WSW 10.4 mph 19.6 mph N/A   Mostly Cloudy
11:35 PM 32.0 °F 28.7 °F 17.6 °F 55% 30.25 in 10.0 mi West 3.5 mph - N/A   Mostly Cloudy